GFSSE_prec_cthk_276.txt.gz
RH
29 28 24 25 25 26 27 27 28 30 37 40 42 44 43 43 41 38 37 40 56 67 64 67 73 60 47 41 34 32 28 25 22 20 18 17 15 13 12 12 16 16 12
26 27 26 26 25 24 23 24 24 27 31 32 34 35 36 35 34 33 32 30 39 41 47 45 38 38 41 28 25 24 23 21 18 15 12 10 9 10 12 13 16 13 12
26 26 26 26 25 23 22 21 20 24 25 26 26 27 29 28 29 32 28 24 28 36 35 31 25 20 19 21 21 20 17 15 13 12 15 21 15 9 10 12 13 15 16
25 26 27 27 26 24 22 20 19 21 20 20 20 21 22 23 26 28 25 22 24 29 24 19 17 17 17 16 14 13 12 12 11 14 23 24 19 12 12 12 15 18 19
26 28 26 28 28 25 22 20 19 19 17 16 14 14 17 19 22 22 20 20 23 22 17 16 17 18 17 14 12 12 11 12 11 16 18 18 21 15 14 16 18 19 21
31 28 26 27 28 29 26 22 19 18 17 16 14 15 17 18 17 17 19 19 19 16 17 18 18 18 16 13 13 13 14 13 15 24 19 15 17 16 17 18 19 20 21
30 30 27 28 29 30 29 24 21 19 18 16 14 14 17 18 18 16 17 16 15 15 18 20 21 21 17 14 13 14 15 16 20 24 21 22 21 19 19 20 21 23 24
28 30 28 30 31 31 31 27 23 20 18 17 16 14 15 18 19 17 17 16 16 16 18 20 22 20 16 13 12 14 16 17 22 25 26 29 26 25 23 22 22 23 23
30 31 31 33 33 34 34 31 25 22 20 18 17 16 15 16 19 19 18 18 16 15 16 17 18 16 14 12 12 12 13 15 20 26 26 31 28 29 29 29 28 27 25
30 32 33 34 36 36 33 32 29 26 23 21 20 18 16 15 15 16 18 17 16 15 14 13 13 12 11 11 11 11 11 12 14 22 27 31 29 30 31 32 33 33 32
31 32 33 36 36 34 34 30 29 28 26 25 24 20 20 24 21 20 14 15 15 14 13 12 11 11 10 10 10 10 10 13 17 17 18 20 26 31 33 33 33 34 34
30 31 32 32 33 34 38 36 36 31 32 30 30 25 26 21 20 17 15 14 14 13 13 13 12 12 12 17 19 14 14 16 14 17 17 13 12 18 26 33 36 35 35
31 28 29 30 31 32 35 36 39 34 33 31 25 24 24 22 23 25 24 23 22 18 20 18 18 19 19 17 18 17 16 16 18 17 17 12 12 13 14 18 25 34 37
29 30 26 27 28 29 30 31 34 34 34 35 32 28 30 30 27 26 26 26 23 26 24 26 27 25 21 22 21 22 23 23 27 27 26 20 16 15 15 15 15 17 24
37 35 33 32 30 32 35 36 37 38 36 33 31 32 32 37 37 37 37 35 34 33 31 29 30 30 29 29 28 27 26 25 25 24 28 25 20 19 19 19 19 18 17
52 47 41 42 41 45 45 43 41 42 39 37 36 37 38 38 36 35 38 37 37 37 39 39 40 37 36 35 32 33 33 32 34 34 32 31 26 21 20 21 21 22 22
55 53 47 44 44 46 47 48 49 52 51 54 55 52 54 52 49 46 46 46 48 45 45 43 44 46 44 46 46 46 45 44 41 37 34 36 36 37 34 30 27 25 24
52 52 50 48 45 49 55 57 64 65 64 65 67 68 69 70 69 72 71 67 67 69 71 63 60 61 59 57 57 58 61 59 59 59 55 53 56 54 49 44 39 36 34
50 50 51 52 54 56 60 69 78 70 74 80 78 78 71 68 70 69 63 58 54 45 45 52 51 46 52 53 53 62 60 61 67 67 65 67 71 75 68 65 63 57 50
42 43 46 49 52 60 66 64 73 71 78 97 72 65 68 66 65 59 46 32 31 29 23 23 24 23 31 22 23 30 23 30 21 28 39 43 45 60 61 67 67 69 72
35 38 42 46 53 59 62 60 66 62 60 59 60 60 52 52 45 29 18 12 12 11 10 9 8 8 12 6 8 6 7 14 20 16 17 20 25 20 22 22 25 39 50
35 38 41 44 49 52 53 56 55 55 60 54 51 45 30 22 15 7 4 3 2 2 2 2 2 2 7 8 5 6 8 7 20 8 9 12 11 8 7 6 6 7 7
28 33 37 43 50 49 48 46 50 49 38 32 26 21 12 5 3 2 2 1 1 2 2 2 2 2 6 9 9 7 7 9 7 11 7 10 6 8 7 7 7 5 3
25 25 26 28 30 34 31 29 23 20 14 9 6 4 3 2 2 2 2 2 2 2 2 3 2 3 4 10 10 10 12 11 10 10 8 8 10 9 9 10 6 9 10
25 25 25 25 24 23 17 14 8 6 5 4 2 2 2 2 2 2 2 2 2 3 3 3 3 4 9 10 11 12 12 12 15 13 9 9 10 10 11 9 12 11 11
32 28 26 24 22 16 13 6 4 3 2 2 2 3 3 3 3 3 3 3 3 3 4 4 4 5 6 7 10 13 13 13 14 15 15 14 13 12 12 14 13 13 13

GFSSE_prec_cthk_279.txt.gz
RH
34 21 23 25 26 26 27 27 32 38 42 43 42 41 43 45 44 43 60 72 78 76 81 73 63 52 46 44 41 32 29 27 27 24 22 17 15 13 12 14 17 17 11
27 23 24 24 23 22 23 24 29 33 34 36 36 35 34 36 37 37 39 53 55 52 50 60 47 40 33 31 28 27 26 23 20 17 15 10 9 10 11 15 18 12 12
26 24 25 22 21 21 23 25 27 28 28 28 27 29 28 30 34 32 28 32 41 40 35 28 24 33 33 26 24 22 20 17 16 19 19 22 9 8 10 12 13 14 15
26 27 25 23 20 20 22 25 24 23 22 22 22 23 24 26 29 27 23 27 34 29 22 18 19 18 17 16 16 16 14 13 16 21 27 28 16 11 11 12 14 16 17
31 31 25 23 20 19 22 23 24 21 19 17 18 20 21 23 24 21 20 25 25 20 17 18 19 18 16 14 13 14 13 13 18 21 24 24 27 13 13 15 16 18 19
34 31 25 25 22 20 20 22 21 19 17 15 16 18 19 19 18 20 19 20 17 16 18 19 18 18 15 14 15 15 14 19 25 31 27 16 24 15 16 17 18 18 19
36 28 25 25 25 23 20 21 20 19 18 16 15 18 19 18 17 18 17 15 14 16 19 19 20 19 17 15 14 14 15 16 26 31 27 24 22 18 18 19 19 20 21
37 35 28 27 27 27 24 21 20 19 18 17 15 16 19 19 18 17 17 16 16 17 19 21 22 20 17 15 14 15 15 16 23 33 31 38 25 22 22 22 22 22 22
38 34 32 30 29 29 28 25 21 19 18 17 16 15 16 18 19 19 18 17 16 16 18 20 21 18 16 14 13 12 12 14 18 33 29 36 29 26 28 29 29 29 28
44 40 39 33 32 30 31 30 26 23 20 19 18 16 14 15 16 18 18 16 16 15 15 15 14 12 11 10 10 9 9 9 16 28 31 33 30 29 30 31 32 32 33
33 36 37 37 38 40 36 29 28 27 26 24 22 19 20 29 25 24 16 15 15 14 13 12 11 10 10 9 10 10 9 10 18 21 22 21 20 21 27 29 32 34 34
33 36 38 37 38 39 47 37 52 37 35 36 37 26 34 26 26 23 17 14 13 13 13 13 12 11 11 14 22 18 17 20 18 17 20 18 14 12 12 16 23 28 33
36 37 36 34 36 39 47 45 46 45 42 36 34 31 31 29 33 32 30 28 26 20 23 23 22 20 29 24 22 23 22 23 24 27 26 21 16 13 11 12 13 14 19
34 35 31 32 32 32 39 37 46 43 41 45 44 35 37 38 36 34 37 35 31 38 35 34 38 38 31 31 30 30 30 30 28 32 32 27 25 21 19 18 17 16 16
35 32 31 35 27 28 34 40 45 43 39 39 39 32 34 40 42 41 47 45 46 47 44 43 42 40 40 40 41 42 41 40 37 37 37 36 32 28 25 22 21 21 21
42 40 37 37 33 41 44 46 45 47 45 46 42 38 40 44 41 45 47 45 42 43 48 47 51 48 49 49 47 48 47 46 47 46 45 44 42 38 35 32 32 31 29
54 52 49 46 45 44 44 47 50 51 55 56 56 55 53 59 59 59 58 57 60 61 63 64 64 65 62 60 60 58 58 61 63 65 64 64 62 60 64 65 62 57 47
54 55 53 49 47 46 47 52 56 57 65 62 66 68 72 72 75 73 68 70 67 64 61 53 48 52 52 53 44 48 49 54 57 61 58 62 69 78 77 79 70 72 75
50 49 52 49 46 47 49 52 57 66 75 70 70 78 79 76 69 67 64 65 54 45 37 34 32 29 28 28 24 28 22 24 32 37 35 43 37 35 41 40 55 53 56
45 47 49 50 49 48 54 55 69 73 66 76 72 73 91 67 61 61 55 42 30 19 14 12 11 12 13 11 4 7 8 7 12 28 30 27 27 21 20 17 21 24 22
42 40 41 42 45 52 48 67 54 70 64 62 74 64 57 55 49 37 30 19 10 5 3 2 2 5 7 7 7 3 6 11 19 17 15 12 11 13 10 7 6 5 6
35 34 35 39 40 48 55 48 60 54 55 60 61 56 47 41 28 14 7 3 2 5 2 1 2 3 7 9 8 6 7 15 14 10 12 12 9 9 8 8 8 8 5
34 34 35 39 41 41 50 48 50 55 54 51 49 39 25 17 7 3 1 1 2 3 3 2 2 3 9 9 10 9 9 10 7 13 12 11 10 10 9 9 9 8 11
31 33 34 34 35 41 44 43 42 43 44 39 28 11 6 3 2 2 2 2 2 3 3 6 4 10 9 10 11 11 12 13 14 12 12 11 9 10 10 9 9 12 11
28 28 27 29 30 32 32 32 31 31 24 18 9 4 2 2 2 2 2 2 3 4 4 4 5 5 11 12 11 11 11 13 19 18 17 14 12 11 11 11 13 11 11
33 29 26 28 26 24 24 24 25 21 17 12 9 8 8 8 4 3 3 3 3 4 4 4 6 6 7 11 12 12 12 14 16 17 17 12 12 13 12 15 12 12 13

GFSSE_prec_cthk_282.txt.gz
RH
20 19 21 24 25 24 25 32 40 43 40 40 43 44 43 43 53 66 76 85 83 84 77 68 61 58 46 41 34 31 34 33 31 26 20 18 15 12 11 11 10 10 9
17 19 21 21 20 20 23 27 33 33 33 33 34 34 36 35 37 53 60 65 76 74 63 46 44 38 37 38 32 30 26 23 22 19 18 12 10 9 11 14 14 11 11
18 20 19 19 19 21 25 28 26 25 26 25 29 30 30 33 32 31 40 49 46 41 39 39 37 34 30 28 25 23 21 24 27 25 21 14 8 9 10 11 12 13 13
20 20 19 17 17 20 22 25 23 21 20 23 25 24 27 30 28 24 29 34 34 27 20 21 22 21 22 20 19 17 17 22 25 27 29 22 17 10 10 12 14 15 16
25 19 19 17 16 18 21 21 21 19 17 17 19 22 23 23 21 21 26 27 24 18 18 19 18 17 15 14 14 13 17 20 22 22 24 27 20 14 13 15 16 17 18
25 21 21 19 17 17 16 17 17 18 16 16 17 18 19 19 20 19 20 19 16 17 19 19 18 17 15 15 15 15 22 25 29 29 28 19 21 15 16 17 17 18 18
24 23 22 21 19 17 17 17 17 18 16 15 18 18 18 17 18 16 14 14 15 18 19 19 19 18 17 16 15 16 18 27 29 31 30 28 21 19 18 19 19 20 21
27 24 24 24 23 20 18 18 17 17 17 14 15 18 18 18 17 17 16 15 17 18 18 20 19 16 14 13 14 14 15 22 29 32 37 38 34 23 24 25 26 25 24
24 25 27 28 27 25 22 19 18 18 17 16 14 14 16 18 19 18 17 16 16 17 18 19 17 13 11 9 9 9 9 13 26 32 32 32 32 29 26 28 28 28 29
33 27 28 28 28 29 27 25 22 20 18 18 17 14 16 18 17 18 17 16 16 15 15 15 14 11 9 8 8 8 8 8 14 20 24 25 27 27 26 27 28 29 30
36 36 35 32 31 32 28 26 24 23 23 22 21 20 26 23 24 21 16 14 14 14 13 12 11 10 10 10 14 17 15 12 16 21 22 20 19 16 14 13 19 25 29
39 38 42 42 44 45 42 34 41 31 31 31 31 25 35 30 32 26 19 16 14 13 13 15 13 13 15 18 21 22 20 20 20 18 22 22 21 18 15 12 11 12 14
32 36 39 35 40 40 52 36 43 41 38 36 32 36 35 31 34 32 29 30 26 25 30 28 25 29 29 27 23 26 27 25 24 28 32 32 31 27 24 23 18 16 15
35 37 33 33 33 34 52 45 57 48 43 47 41 32 34 47 45 38 42 39 42 40 38 35 37 38 39 35 33 35 35 33 31 31 31 33 33 33 33 30 27 23 22
35 35 36 31 28 28 34 41 44 46 44 48 40 30 32 40 44 41 60 44 62 48 49 53 55 56 51 52 56 55 55 43 45 47 49 50 51 49 44 43 41 43 39
37 34 33 36 28 32 35 43 42 48 47 47 46 47 44 40 42 44 45 52 50 47 48 49 49 53 54 54 55 53 58 63 55 61 64 74 67 67 68 69 73 71 71
41 35 35 39 37 41 40 45 46 49 50 52 52 52 53 56 61 62 64 65 63 66 65 61 60 57 51 56 55 52 54 48 46 54 59 56 56 64 57 99 90 80 75
40 42 44 43 45 41 41 42 46 51 53 58 61 63 65 67 69 72 71 66 62 60 56 53 45 38 38 35 30 32 30 31 35 38 40 59 42 37 36 37 37 49 42
48 48 48 47 47 43 43 42 43 46 52 64 67 66 68 72 72 74 63 60 57 48 43 23 14 15 14 13 10 6 7 10 16 19 29 28 30 30 23 21 21 21 20
47 49 47 47 46 46 43 44 45 47 60 66 66 63 66 67 66 69 58 46 34 26 12 6 5 4 7 4 2 1 2 8 14 23 30 26 21 19 14 10 5 3 3
46 44 47 48 48 45 45 43 49 57 63 66 63 61 60 61 54 48 43 26 14 6 2 1 1 2 7 3 2 3 9 13 15 18 21 15 11 7 5 3 4 5 4
44 45 43 42 42 41 42 48 43 56 53 51 54 53 52 54 46 33 22 9 2 2 2 2 2 4 9 5 4 4 10 14 14 14 11 10 8 7 5 5 5 6 11
43 39 34 34 37 39 37 44 44 52 44 47 44 48 45 36 27 13 5 2 1 2 2 2 2 4 9 9 8 7 10 10 8 12 13 11 9 7 6 5 7 9 9
39 34 33 33 36 40 39 39 43 43 39 39 47 39 31 18 9 4 2 2 2 2 2 3 4 5 6 9 9 11 11 11 13 11 7 9 6 6 5 8 10 8 7
36 32 33 35 36 36 34 38 41 37 35 33 27 21 15 9 4 2 2 2 2 3 4 5 4 5 5 6 10 9 10 11 12 12 12 6 5 5 6 9 6 6 7
31 33 32 31 29 30 32 35 32 28 24 20 18 19 13 7 3 2 2 3 4 5 6 4 4 4 5 5 6 7 12 12 12 13 11 12 9 7 7 6 7 7 7

GFSSE_prec_cthk_285.txt.gz
RH
30 21 24 25 24 24 32 39 46 41 39 39 42 43 57 63 76 80 81 79 81 79 78 71 57 47 44 40 34 42 46 46 38 28 22 18 13 10 10 9 8 9 9
17 18 21 21 18 22 27 36 38 35 34 34 33 32 34 51 58 72 78 74 72 66 59 55 48 43 36 33 32 32 27 26 25 20 18 13 10 9 11 9 9 10 10
16 17 18 17 17 22 24 31 29 31 29 29 29 32 29 33 44 58 58 56 60 54 44 39 38 36 35 30 27 28 29 30 28 23 19 14 12 9 10 11 12 12 13
17 16 16 14 15 19 19 18 21 24 25 23 23 25 27 24 27 31 38 46 36 27 30 32 36 33 27 24 26 27 26 26 24 22 20 18 18 11 11 13 14 15 15
17 16 14 13 14 16 15 14 13 13 16 18 19 20 20 18 19 27 25 23 18 18 19 19 17 16 15 15 17 20 21 21 21 22 21 19 22 14 14 15 16 17 17
18 17 14 13 13 13 12 12 12 12 14 15 16 16 17 17 17 19 18 16 16 18 18 16 15 14 15 15 21 23 26 28 29 26 24 26 18 16 16 17 17 18 18
18 18 15 14 14 14 13 12 12 11 13 15 15 15 15 16 15 13 13 15 16 17 17 16 16 14 14 14 15 23 26 28 29 29 27 34 29 21 19 19 19 20 20
20 20 19 17 15 15 14 13 13 12 11 13 16 16 16 15 14 14 14 15 16 16 18 16 14 12 11 12 13 15 23 26 30 31 28 30 28 28 24 24 25 26 26
22 23 23 22 20 18 16 15 15 14 13 12 13 16 17 17 16 15 14 15 16 17 17 16 14 11 9 8 8 9 12 26 30 29 28 31 33 32 28 26 28 30 30
22 23 24 24 25 24 22 20 19 18 17 16 14 15 17 18 19 17 15 14 14 15 15 14 12 10 8 8 12 13 10 12 19 20 20 25 24 22 21 21 19 23 27
25 25 25 26 26 25 23 21 20 20 20 20 21 25 24 21 21 18 14 13 13 13 12 12 11 10 10 12 16 17 16 16 14 16 18 20 21 22 22 20 18 13 12
26 28 27 30 33 38 34 30 31 26 28 27 26 32 31 26 22 21 24 21 18 17 15 19 17 19 20 18 19 18 17 17 17 21 30 32 30 32 32 31 28 25 20
29 33 30 35 43 40 38 38 40 39 34 33 30 37 35 33 32 32 33 34 36 34 31 31 29 30 29 30 32 32 32 30 29 28 31 34 36 39 38 40 40 40 38
30 29 34 31 30 50 53 53 53 42 37 36 32 34 33 42 43 42 46 43 51 46 45 43 44 43 43 45 47 55 49 53 42 42 45 54 52 52 53 49 47 47 48
26 28 28 30 28 38 39 43 45 45 42 43 41 38 34 40 48 45 59 55 56 57 55 52 55 56 56 56 57 59 61 65 59 62 70 68 70 80 74 74 74 77 76
35 32 30 28 31 37 36 39 43 42 43 44 45 46 43 45 47 47 49 53 50 52 51 60 59 60 59 58 60 56 62 60 72 73 67 62 70 67 67 65 77 66 72
45 35 31 32 33 37 37 37 40 42 47 45 50 53 51 52 56 58 62 65 63 61 60 58 57 55 53 45 44 43 47 48 50 45 50 48 47 54 48 44 36 42 45
42 40 32 34 36 37 39 40 41 41 45 47 52 60 61 61 63 64 66 68 60 57 55 48 43 33 19 17 20 20 22 26 26 28 31 30 30 34 26 20 21 20 17
43 41 42 42 40 42 41 43 41 41 41 44 51 58 64 61 63 64 63 67 58 50 38 27 16 7 6 6 4 3 5 12 16 18 20 25 24 21 19 19 12 5 4
45 47 48 47 48 43 43 43 44 42 40 43 51 57 60 62 62 61 57 51 45 33 16 10 3 2 2 2 1 4 6 12 15 17 20 19 21 20 16 6 3 3 5
52 52 51 50 48 48 46 44 44 41 41 46 54 56 56 54 56 55 53 40 30 16 4 1 1 2 2 1 6 9 13 14 16 17 17 18 15 7 4 3 4 6 6
57 55 49 47 46 49 47 42 43 41 45 45 51 50 46 46 45 46 39 28 15 3 1 1 2 2 2 2 4 8 11 13 12 12 11 9 7 4 3 4 6 7 6
59 56 50 48 45 45 42 40 41 44 41 42 48 40 44 43 39 33 27 13 5 2 1 2 2 3 3 3 3 5 8 9 9 11 9 6 4 4 4 4 5 5 4
59 56 51 45 38 34 40 40 38 40 38 40 40 38 37 35 29 23 12 6 4 2 2 2 2 3 3 4 5 7 7 7 7 7 5 4 4 4 4 4 4 4 4
55 52 48 40 35 36 36 39 38 36 37 38 37 32 27 24 16 12 8 6 3 2 2 2 3 3 4 4 4 5 6 6 5 5 6 4 4 4 4 4 5 5 5
50 46 43 36 34 34 38 35 33 30 37 34 28 22 19 16 13 9 8 5 2 2 3 3 3 4 4 4 4 5 5 5 6 5 5 5 5 4 4 5 5 5 5

GFSSE_prec_cthk_288.txt.gz
RH
27 30 28 30 29 29 34 41 40 39 43 48 61 65 80 81 80 80 83 85 82 79 80 73 71 59 49 48 62 68 60 45 34 28 24 20 14 12 9 9 8 8 9
28 24 25 24 23 23 29 35 34 33 35 35 38 51 63 78 77 78 79 77 79 71 64 49 45 41 36 41 45 39 34 29 23 21 17 13 11 11 10 9 10 10 10
22 20 21 19 18 20 24 26 23 26 29 30 30 34 49 61 72 71 71 67 57 53 48 45 40 36 35 34 29 30 30 27 26 22 20 14 10 9 10 11 12 12 13
16 18 18 15 16 17 15 15 20 20 21 24 26 27 34 40 49 52 53 54 45 39 37 37 36 33 30 30 34 32 30 29 25 20 19 17 14 11 12 14 14 15 16
15 15 15 14 15 14 12 11 12 15 15 19 22 19 21 25 27 34 30 24 29 31 27 31 31 25 24 26 26 26 25 25 22 20 20 16 14 14 15 16 17 18 18
15 15 13 13 13 11 11 10 11 12 13 15 16 17 18 21 23 20 16 16 18 17 16 15 15 15 16 20 23 25 28 27 23 23 24 23 24 20 18 18 18 19 20
14 14 13 12 12 11 11 10 10 13 13 14 13 14 14 14 14 14 15 16 17 16 15 14 14 14 14 21 23 27 29 27 26 24 25 27 29 30 27 24 24 24 24
14 14 13 12 11 11 12 11 10 11 13 14 14 14 14 13 12 12 14 16 16 16 15 13 12 13 14 15 18 25 26 27 28 28 26 30 32 34 28 25 25 27 28
18 16 14 14 13 12 12 13 12 11 12 13 14 14 14 14 13 13 15 15 16 16 16 12 10 9 9 9 10 19 19 28 25 23 22 24 31 29 26 24 24 23 22
19 19 18 17 16 16 15 15 15 14 12 12 15 16 17 16 16 14 14 14 14 14 14 12 10 8 8 9 12 10 13 22 21 22 20 21 24 23 23 24 25 22 18
23 21 20 19 18 17 16 16 16 16 16 19 19 19 19 18 15 15 14 14 14 13 13 13 12 11 11 13 16 16 15 12 15 17 19 22 28 28 30 34 33 34 30
24 25 25 24 23 22 21 21 21 21 20 22 25 24 22 19 20 22 23 21 18 16 22 21 21 21 20 24 26 23 25 23 22 22 27 31 37 38 41 44 38 40 38
25 26 26 27 32 30 28 31 33 29 28 28 28 27 25 28 28 30 32 32 31 32 32 31 31 31 31 32 34 33 33 39 36 38 37 38 39 39 43 46 56 54 50
29 27 27 31 35 34 35 37 34 31 28 27 27 29 30 33 35 35 35 39 40 40 45 44 43 44 40 40 42 45 52 44 58 46 55 63 67 69 74 70 68 75 75
31 30 31 32 34 39 42 42 40 37 32 30 31 32 34 41 40 42 48 46 51 53 51 54 55 57 58 58 60 61 63 62 67 67 65 69 75 68 72 72 75 76 71
32 30 29 25 30 36 36 35 38 41 40 39 40 43 39 45 44 46 54 57 55 60 62 62 62 61 62 63 63 62 63 56 57 58 59 64 61 57 64 60 56 49 42
34 33 33 28 29 33 33 34 36 38 39 39 44 49 47 47 52 56 56 57 63 64 61 58 54 52 52 55 49 47 43 43 45 43 52 50 44 43 39 32 31 16 14
43 40 40 33 32 35 38 38 38 41 43 43 43 46 49 55 58 57 59 60 62 66 61 53 49 43 34 18 20 27 26 28 34 35 33 31 30 26 23 20 14 13 6
51 47 41 37 36 36 41 41 41 43 45 44 43 44 49 54 59 60 60 60 59 58 54 43 24 17 5 5 6 7 11 14 17 19 20 20 20 18 16 14 12 4 4
52 49 45 42 44 41 41 43 41 45 44 43 43 47 49 51 51 55 57 56 56 48 38 23 8 2 1 2 2 4 9 12 14 16 17 17 18 17 14 8 4 4 4
56 51 49 52 51 49 44 44 45 45 43 41 40 44 48 52 50 52 50 49 48 37 22 5 2 1 2 5 5 9 11 13 14 17 18 17 15 8 4 4 4 4 4
58 56 54 56 57 53 48 48 48 47 44 44 43 46 47 50 45 44 44 42 36 25 10 3 2 2 4 8 10 11 14 15 16 16 15 9 4 3 3 4 4 4 4
62 60 61 61 60 56 52 49 46 45 43 44 43 44 43 45 39 39 38 32 25 12 6 4 2 2 2 7 10 9 12 12 12 13 8 4 4 4 4 4 4 4 4
64 61 66 66 63 59 53 48 44 41 42 42 39 39 41 36 36 35 30 24 13 8 6 4 3 2 3 3 4 4 5 4 5 8 4 4 4 4 4 4 4 4 4
60 61 62 64 62 58 53 45 39 40 40 36 36 39 36 34 32 27 22 13 8 6 6 4 3 3 3 3 3 4 4 4 4 4 4 4 4 4 4 4 4 4 4
52 54 57 60 59 53 44 37 38 37 36 34 36 36 32 30 24 17 13 10 7 6 6 4 3 3 3 3 4 4 4 4 4 5 5 5 5 4 4 4 4 4 4

GFSSE_prec_cthk_294.txt.gz
RH
25 28 31 32 33 35 38 39 37 42 57 87 89 89 91 93 94 92 90 89 84 84 83 86 88 83 81 80 74 63 51 43 33 25 21 18 15 13 12 10 9 10 11
24 26 29 28 28 32 37 34 32 35 44 66 82 83 85 86 87 89 88 85 84 84 84 83 75 75 76 74 67 54 41 30 25 21 19 17 14 12 10 11 11 13 14
23 23 25 23 24 28 29 29 30 30 32 53 79 75 75 78 81 80 71 67 64 66 76 73 57 62 64 65 56 45 35 31 27 21 17 16 14 13 14 15 16 17 17
22 20 20 20 22 24 21 23 27 26 26 39 65 71 70 74 73 66 66 56 51 43 44 41 41 38 39 39 37 35 33 29 25 23 18 15 15 16 17 18 19 19 19
19 17 16 18 20 19 16 17 21 23 24 26 40 52 54 59 57 50 51 51 45 42 37 34 37 40 42 38 35 33 34 31 29 25 23 22 22 22 23 24 25 25 23
16 15 16 18 16 13 12 13 15 19 21 20 23 30 36 45 35 37 39 40 34 34 33 32 36 37 34 31 31 27 27 26 25 25 25 25 23 23 22 22 23 24 28
17 16 16 15 12 10 11 12 12 14 15 16 18 22 22 22 24 27 27 22 19 22 23 24 23 23 26 27 27 25 26 25 25 25 27 27 24 23 25 27 28 28 26
18 17 15 13 10 8 11 12 12 12 13 13 14 13 13 14 16 17 17 17 16 16 17 18 21 24 25 23 23 22 24 26 25 25 28 29 27 24 28 28 27 27 24
20 18 15 13 11 9 10 12 12 12 13 12 11 10 11 12 13 14 13 14 13 13 13 14 17 20 20 20 23 23 22 22 21 20 20 21 22 26 27 26 25 26 27
20 20 17 14 13 12 11 13 13 13 13 13 13 13 13 14 15 15 16 18 17 14 12 10 10 10 12 16 19 19 18 20 19 19 20 18 21 24 24 28 33 40 37
20 18 16 14 13 13 12 12 14 15 15 16 15 15 15 15 15 16 17 17 17 16 14 13 12 11 13 14 14 16 16 18 20 20 21 21 22 25 33 34 39 43 45
21 19 18 16 16 16 16 15 15 15 17 18 18 17 17 16 16 18 19 19 19 21 20 19 17 17 19 19 17 18 19 20 21 21 23 27 31 33 36 38 46 54 62
21 22 21 21 20 19 19 18 17 18 18 18 19 19 21 23 25 23 23 22 24 26 27 27 27 26 28 29 30 32 34 35 38 36 40 40 44 50 59 64 68 73 70
25 25 25 25 24 22 22 21 21 23 22 22 23 22 23 27 31 32 32 33 35 36 38 40 39 39 41 42 43 43 45 51 55 54 57 61 61 61 64 67 62 61 56
28 29 27 27 28 27 24 27 25 24 25 26 26 25 29 34 36 38 38 39 40 46 49 48 47 54 58 58 58 60 65 62 59 59 60 57 56 56 59 59 57 54 44
31 28 29 28 28 34 31 32 33 30 29 29 29 29 36 42 43 41 44 45 48 49 53 56 62 62 63 60 55 53 50 51 50 46 44 44 44 42 45 48 40 29 24
37 31 31 31 30 36 38 40 38 37 35 34 38 42 45 47 45 45 47 50 52 57 53 56 58 58 55 49 45 43 40 29 30 31 32 32 31 30 35 31 22 17 12
40 37 35 37 37 38 43 46 45 44 44 43 41 43 44 45 42 46 53 54 54 56 56 57 57 53 49 47 39 28 20 20 22 25 26 25 26 26 20 17 14 10 6
43 40 37 39 42 43 42 48 48 47 48 47 46 46 47 45 44 48 50 50 53 53 55 55 57 53 48 37 22 17 18 20 21 21 22 21 19 16 14 13 8 4 3
50 41 41 41 43 44 44 52 51 49 49 48 48 49 49 47 48 48 52 53 52 53 54 54 55 49 30 16 13 16 18 19 20 19 17 15 14 14 11 7 4 3 3
62 59 51 44 44 43 44 48 52 51 51 51 51 50 50 48 49 49 50 54 53 53 50 50 42 28 15 10 9 14 15 16 16 15 13 13 12 9 5 3 3 3 3
58 55 53 51 50 46 45 49 52 51 51 51 51 51 51 49 48 48 51 51 54 48 45 39 31 20 7 10 10 11 14 15 14 13 12 11 8 4 4 4 4 3 3
55 49 49 55 55 51 51 56 58 56 54 52 51 52 52 50 49 49 53 50 49 41 38 32 24 9 7 9 11 12 14 15 15 13 12 9 5 4 4 4 4 4 4
48 46 46 55 60 59 62 65 66 61 59 58 57 55 53 50 49 48 49 47 40 39 33 24 11 9 9 9 11 11 12 13 15 13 10 7 5 4 4 4 4 4 4
57 50 50 55 65 70 69 69 75 77 74 65 60 58 56 52 47 42 45 40 36 31 22 12 9 10 11 12 11 12 11 10 11 10 7 6 5 5 4 4 4 4 4
59 57 59 58 65 73 76 72 72 77 74 69 61 58 54 49 41 41 39 36 31 20 13 11 9 9 11 12 12 12 9 4 5 5 5 5 5 5 5 4 4 4 5

GFSSE_prec_cthk_297.txt.gz
RH
26 31 32 32 33 38 39 37 40 63 86 92 93 94 94 93 91 91 93 94 91 89 90 91 85 84 76 72 63 53 47 42 36 31 26 19 15 13 12 11 10 12 14
24 29 30 29 31 37 35 33 35 50 75 89 90 93 92 94 93 94 90 87 86 86 86 90 82 83 79 70 57 49 42 38 29 24 20 17 15 13 13 12 14 16 16
24 26 26 26 28 30 31 30 33 43 71 81 84 84 88 90 87 78 81 86 82 82 78 71 72 72 69 64 53 49 40 30 24 21 18 17 15 15 16 17 17 17 17
24 24 22 24 26 25 25 28 29 35 61 78 76 77 81 80 75 66 64 58 67 75 68 52 49 57 58 56 53 46 36 30 23 20 20 19 18 19 21 22 22 21 20
21 24 21 21 21 20 20 23 25 29 41 60 64 70 76 68 60 58 50 42 38 39 38 35 37 40 41 40 37 34 31 29 27 26 23 21 21 22 23 24 25 26 27
17 19 20 20 17 15 14 17 22 25 30 38 44 54 54 46 49 50 47 43 38 39 41 45 45 43 40 35 32 30 28 26 26 27 24 23 24 27 25 24 22 23 26
16 16 19 18 14 12 13 14 18 19 20 24 28 32 38 35 35 34 33 26 29 36 38 33 28 26 25 23 23 24 24 25 26 28 27 24 28 27 25 24 23 23 21
15 16 18 15 12 12 12 13 14 14 15 17 18 19 19 22 27 22 21 21 20 22 23 22 23 24 23 22 21 23 25 25 24 26 27 27 25 24 24 25 25 26 25
15 17 16 14 11 13 13 12 13 14 13 13 12 11 12 14 14 15 15 15 15 15 17 19 20 19 19 20 20 19 20 20 18 17 17 18 19 20 19 22 26 30 34
18 17 16 14 12 13 14 13 13 13 13 12 11 13 14 15 15 15 15 15 14 14 13 13 13 14 16 16 17 17 17 18 17 17 17 18 17 18 24 29 33 36 37
19 18 16 15 14 14 15 15 14 14 14 14 14 14 14 15 15 17 18 18 16 14 12 11 11 12 13 14 17 17 17 17 19 20 21 22 23 26 30 34 35 38 45
16 16 15 14 15 15 15 16 16 16 17 16 16 16 15 16 19 20 21 21 21 20 19 17 16 16 17 17 17 18 19 22 24 26 27 31 33 39 44 49 56 64 68
15 15 16 16 18 18 17 17 17 19 21 20 19 19 19 22 22 23 24 25 28 28 27 26 26 27 29 30 32 32 35 38 42 48 49 50 56 59 65 62 64 64 65
18 17 17 18 19 20 20 19 20 21 21 21 21 22 24 27 27 28 28 26 30 32 34 36 39 40 42 44 48 51 52 55 59 60 61 62 62 62 57 58 59 54 49
22 20 18 18 20 21 20 20 21 25 25 25 24 22 27 32 34 34 35 37 40 41 45 49 49 52 56 58 60 60 59 58 55 55 56 57 56 51 45 44 40 43 38
24 23 21 20 21 21 23 23 23 26 27 29 30 29 33 39 42 42 43 46 45 50 51 51 52 58 61 60 58 55 50 48 44 39 36 37 39 38 35 33 34 29 17
27 26 23 22 22 24 26 28 31 29 31 32 31 35 39 45 46 46 44 48 52 54 57 56 57 58 58 56 53 49 45 35 25 24 26 28 30 30 27 26 20 14 10
32 28 28 28 24 27 32 34 37 37 37 39 43 47 48 48 45 42 48 53 54 56 58 57 58 59 57 51 49 44 31 21 21 23 24 24 24 22 18 14 13 9 3
42 37 33 32 33 31 34 39 44 44 45 47 48 50 51 50 48 47 51 52 52 53 55 56 58 57 56 52 43 27 19 19 21 21 21 20 17 14 13 11 6 3 3
48 47 41 37 36 38 41 41 45 48 47 49 49 50 51 50 48 49 49 51 53 53 52 53 53 53 50 42 26 18 18 19 20 19 18 16 14 13 9 5 3 3 3
54 52 47 42 40 39 42 44 46 50 52 52 52 52 52 50 49 48 49 51 52 53 55 50 47 47 39 30 13 16 17 17 17 16 15 14 13 10 5 4 3 3 3
66 64 57 48 46 43 44 44 44 51 53 50 51 51 52 51 49 48 48 50 52 56 53 48 43 36 30 17 12 13 15 15 15 14 13 12 10 6 4 4 4 4 3
70 71 70 66 63 53 49 48 48 50 52 50 49 51 52 53 51 48 49 49 50 50 47 40 36 29 20 12 12 13 16 16 15 14 13 11 8 5 4 4 4 4 4
72 73 69 66 57 59 56 47 45 48 52 52 51 53 55 55 56 52 49 48 47 45 38 36 31 21 10 9 11 12 15 16 17 16 11 10 7 5 5 4 4 4 4
68 64 62 60 57 54 56 52 47 52 59 61 60 58 58 58 58 55 51 42 43 38 33 28 21 12 11 11 13 14 16 17 16 14 16 8 6 5 6 5 4 5 4
64 62 63 59 56 53 56 58 58 61 67 73 76 77 68 62 59 53 47 41 38 33 27 18 14 12 14 16 15 17 18 16 11 12 10 9 8 6 7 6 5 5 4